N2324K KMSV-KSWF

Flight info

Callsign N2324K
Flight time 1h 6m
Altitude 5000
Route FLOSI
Aircraft T34P/L-BDFGLORY/S

Departure

Time 2026-05-05 19:42
Airport Sullivan County International Airport (KMSV)

Arrival

Time 2026-05-05 20:48
Airport New York Stewart International Airport (KSWF)
Time Latitude Longitude Altitude Speed Heading
2026-05-05 19:31 41.70147 -74.79895 1384 ft 0 kts 322°
2026-05-05 19:38 41.70151 -74.79896 1384 ft 4 kts 12°
2026-05-05 19:39 41.70181 -74.79866 1384 ft 6 kts 354°
2026-05-05 19:39 41.70248 -74.79928 1385 ft 19 kts 316°
2026-05-05 19:39 41.70336 -74.79965 1388 ft 10 kts 50°
2026-05-05 19:39 41.70384 -74.79926 1388 ft 6 kts 349°
2026-05-05 19:40 41.70435 -74.79962 1389 ft 15 kts 322°
2026-05-05 19:40 41.70550 -74.80076 1392 ft 26 kts 323°
2026-05-05 19:40 41.70690 -74.80216 1396 ft 22 kts 328°
2026-05-05 19:40 41.70796 -74.80269 1400 ft 13 kts 34°
2026-05-05 19:41 41.70820 -74.80178 1397 ft 17 kts 131°
2026-05-05 19:41 41.70563 -74.79931 1410 ft 71 kts 155°
2026-05-05 19:41 41.70089 -74.79395 1523 ft 104 kts 152°
2026-05-05 19:41 41.69450 -74.78792 1793 ft 112 kts 157°
2026-05-05 19:42 41.68999 -74.78046 2465 ft 116 kts 107°
2026-05-05 19:42 41.69299 -74.76928 2640 ft 143 kts 57°
2026-05-05 19:42 41.69852 -74.75725 2605 ft 147 kts 50°
2026-05-05 19:42 41.70696 -74.75325 2665 ft 132 kts 329°
2026-05-05 19:43 41.71744 -74.75445 2386 ft 177 kts
2026-05-05 19:43 41.72852 -74.74837 2489 ft 150 kts 352°
2026-05-05 19:43 41.73563 -74.75400 2370 ft 104 kts 281°
2026-05-05 19:43 41.73741 -74.76320 2048 ft 108 kts 276°
2026-05-05 19:44 41.73859 -74.77131 2008 ft 73 kts 262°
2026-05-05 19:44 41.73731 -74.77807 1842 ft 74 kts 248°
2026-05-05 19:44 41.73447 -74.78284 1838 ft 68 kts 220°
2026-05-05 19:44 41.73008 -74.78590 1703 ft 70 kts 204°
2026-05-05 19:45 41.72540 -74.78837 1773 ft 72 kts 189°
2026-05-05 19:45 41.72205 -74.78355 1880 ft 73 kts 162°
2026-05-05 19:45 41.71989 -74.78691 1830 ft 83 kts 284°
2026-05-05 19:45 41.72175 -74.79449 1838 ft 83 kts 244°
2026-05-05 19:46 41.71932 -74.80081 1902 ft 67 kts 244°
2026-05-05 19:46 41.71657 -74.80579 1659 ft 70 kts 189°
2026-05-05 19:46 41.71175 -74.80490 1550 ft 71 kts 159°
2026-05-05 19:46 41.70753 -74.80090 1420 ft 76 kts 146°
2026-05-05 19:47 41.70390 -74.79738 1387 ft 53 kts 160°
2026-05-05 19:47 41.70040 -74.79373 1390 ft 84 kts 152°
2026-05-05 19:47 41.69515 -74.78861 1553 ft 104 kts 153°
2026-05-05 19:47 41.69008 -74.78278 2036 ft 100 kts 130°
2026-05-05 19:48 41.68991 -74.77228 2046 ft 120 kts 80°
2026-05-05 19:48 41.69450 -74.76377 2124 ft 112 kts 42°
2026-05-05 19:48 41.70144 -74.76340 1981 ft 104 kts 326°
2026-05-05 19:48 41.70762 -74.76742 1986 ft 91 kts 314°
2026-05-05 19:49 41.71274 -74.77237 1887 ft 98 kts 305°
2026-05-05 19:49 41.71545 -74.77670 2011 ft 82 kts 300°
2026-05-05 19:49 41.72066 -74.78399 2062 ft 75 kts 285°
2026-05-05 19:49 41.71958 -74.78921 2001 ft 66 kts 250°
2026-05-05 19:50 41.72176 -74.79565 1975 ft 75 kts 285°
2026-05-05 19:50 41.72315 -74.80261 1613 ft 94 kts 238°
2026-05-05 19:50 41.71756 -74.80497 1569 ft 76 kts 196°
2026-05-05 19:50 41.71293 -74.80573 1520 ft 69 kts 159°
2026-05-05 19:51 41.70866 -74.80210 1454 ft 80 kts 151°
2026-05-05 19:51 41.70470 -74.79806 1387 ft 59 kts 153°
2026-05-05 19:51 41.70202 -74.79567 1383 ft 45 kts 145°
2026-05-05 19:51 41.69828 -74.79161 1435 ft 87 kts 149°
2026-05-05 19:52 41.69391 -74.78728 1974 ft 74 kts 155°
2026-05-05 19:52 41.68863 -74.78338 2260 ft 87 kts 172°
2026-05-05 19:52 41.68609 -74.77545 2616 ft 125 kts 77°
2026-05-05 19:52 41.69158 -74.76641 2676 ft 124 kts 52°
2026-05-05 19:53 41.69691 -74.75594 2628 ft 147 kts 50°
2026-05-05 19:53 41.70569 -74.75217 2778 ft 126 kts 326°
2026-05-05 19:53 41.71483 -74.75464 2890 ft 121 kts 317°
2026-05-05 19:53 41.72154 -74.76011 3030 ft 114 kts 309°
2026-05-05 19:54 41.72868 -74.76591 3160 ft 121 kts 316°
2026-05-05 19:54 41.73607 -74.77050 3077 ft 116 kts 312°
2026-05-05 19:54 41.74188 -74.77780 2835 ft 108 kts 290°
2026-05-05 19:54 41.74195 -74.78535 2765 ft 71 kts 229°
2026-05-05 19:55 41.73862 -74.79002 2532 ft 69 kts 226°
2026-05-05 19:55 41.73548 -74.79534 2319 ft 73 kts 227°
2026-05-05 19:55 41.73307 -74.80187 2053 ft 88 kts 237°
2026-05-05 19:55 41.72987 -74.80850 1986 ft 85 kts 238°
2026-05-05 19:56 41.72496 -74.81168 1974 ft 88 kts 185°
2026-05-05 19:56 41.71907 -74.81073 1885 ft 88 kts 175°
2026-05-05 19:56 41.71346 -74.80661 1679 ft 96 kts 153°
2026-05-05 19:56 41.70812 -74.80164 1451 ft 93 kts 147°
2026-05-05 19:57 41.70346 -74.79686 1388 ft 71 kts 148°
2026-05-05 19:57 41.70115 -74.79465 1377 ft 52 kts 133°
2026-05-05 19:57 41.69577 -74.78929 1482 ft 91 kts 149°
2026-05-05 19:57 41.69087 -74.78414 1813 ft 79 kts 153°
2026-05-05 19:58 41.68874 -74.77646 2067 ft 121 kts 75°
2026-05-05 19:58 41.69394 -74.76622 2357 ft 130 kts 30°
2026-05-05 19:58 41.70231 -74.76495 2537 ft 126 kts 320°
2026-05-05 19:58 41.70761 -74.77224 2515 ft 108 kts 301°
2026-05-05 19:59 41.71371 -74.77765 2625 ft 109 kts 320°
2026-05-05 19:59 41.71872 -74.78016 2627 ft 115 kts 321°
2026-05-05 19:59 41.72597 -74.78392 2664 ft 107 kts 317°
2026-05-05 19:59 41.73232 -74.78801 2463 ft 94 kts 303°
2026-05-05 20:00 41.73344 -74.79408 2285 ft 69 kts 221°
2026-05-05 20:00 41.72938 -74.79862 1895 ft 80 kts 227°
2026-05-05 20:00 41.72611 -74.80424 1786 ft 80 kts 232°
2026-05-05 20:00 41.72211 -74.80952 1739 ft 80 kts 208°
2026-05-05 20:01 41.71672 -74.80810 1754 ft 84 kts 168°
2026-05-05 20:01 41.71128 -74.80487 1572 ft 85 kts 152°
2026-05-05 20:01 41.70665 -74.80004 1402 ft 75 kts 150°
2026-05-05 20:01 41.70323 -74.79672 1386 ft 45 kts 143°
2026-05-05 20:02 41.70061 -74.79419 1382 ft 70 kts 146°
2026-05-05 20:02 41.69604 -74.78965 1534 ft 89 kts 148°
2026-05-05 20:02 41.69145 -74.78451 1976 ft 79 kts 153°
2026-05-05 20:02 41.68987 -74.77689 2200 ft 118 kts 74°
2026-05-05 20:03 41.69540 -74.76835 2462 ft 132 kts
2026-05-05 20:03 41.70340 -74.77071 2431 ft 113 kts 309°
2026-05-05 20:03 41.71009 -74.77637 2446 ft 112 kts 313°
2026-05-05 20:03 41.71663 -74.78115 2651 ft 101 kts 311°
2026-05-05 20:04 41.72315 -74.78532 2613 ft 109 kts 321°
2026-05-05 20:04 41.72968 -74.79033 2466 ft 101 kts 304°
2026-05-05 20:04 41.73279 -74.79722 2143 ft 83 kts 236°
2026-05-05 20:04 41.72836 -74.80233 2018 ft 82 kts 220°
2026-05-05 20:05 41.72381 -74.80734 1928 ft 84 kts 216°
2026-05-05 20:05 41.71858 -74.81014 1786 ft 82 kts 189°
2026-05-05 20:05 41.71336 -74.80647 1613 ft 90 kts 142°
2026-05-05 20:05 41.70878 -74.80206 1436 ft 78 kts 155°
2026-05-05 20:06 41.70473 -74.79816 1388 ft 61 kts 150°
2026-05-05 20:06 41.70170 -74.79524 1382 ft 66 kts 139°
2026-05-05 20:06 41.69720 -74.79063 1503 ft 96 kts 150°
2026-05-05 20:06 41.69153 -74.78500 1909 ft 88 kts 157°
2026-05-05 20:07 41.68583 -74.77932 2116 ft 115 kts 158°
2026-05-05 20:07 41.67825 -74.77231 1944 ft 155 kts 155°
2026-05-05 20:07 41.67497 -74.76763 2813 ft 113 kts 330°
2026-05-05 20:07 41.68336 -74.77598 2007 ft 176 kts 313°
2026-05-05 20:08 41.69286 -74.78578 1599 ft 169 kts 315°
2026-05-05 20:08 41.69911 -74.79215 2565 ft 56 kts 160°
2026-05-05 20:08 41.69434 -74.78567 2247 ft 136 kts 147°
2026-05-05 20:08 41.68629 -74.77635 1743 ft 141 kts 157°
2026-05-05 20:09 41.68861 -74.77608 2550 ft 106 kts 306°
2026-05-05 20:09 41.69344 -74.78625 1687 ft 142 kts 286°
2026-05-05 20:09 41.69995 -74.79296 1432 ft 107 kts 327°
2026-05-05 20:09 41.70437 -74.79804 1387 ft 67 kts 319°
2026-05-05 20:10 41.70813 -74.80175 1428 ft 79 kts 311°
2026-05-05 20:10 41.71256 -74.80702 1711 ft 92 kts 309°
2026-05-05 20:10 41.71494 -74.81287 2165 ft 70 kts 233°
2026-05-05 20:10 41.71103 -74.80770 2108 ft 131 kts 118°
2026-05-05 20:11 41.70449 -74.79788 1677 ft 144 kts 149°
2026-05-05 20:11 41.71037 -74.80082 2016 ft 150 kts 311°
2026-05-05 20:11 41.71421 -74.81239 1902 ft 146 kts 262°
2026-05-05 20:11 41.71587 -74.80591 1976 ft 195 kts 66°
2026-05-05 20:12 41.71876 -74.78980 2326 ft 169 kts 107°
2026-05-05 20:12 41.71127 -74.78431 2523 ft 122 kts 197°
2026-05-05 20:12 41.71607 -74.78731 2402 ft 189 kts 32°
2026-05-05 20:12 41.72043 -74.78872 2581 ft 88 kts 207°
2026-05-05 20:13 41.71887 -74.79642 2120 ft 112 kts 264°
2026-05-05 20:13 41.71720 -74.80645 2159 ft 120 kts 220°
2026-05-05 20:13 41.70857 -74.80230 1653 ft 157 kts 148°
2026-05-05 20:13 41.70256 -74.79522 2450 ft 104 kts 328°
2026-05-05 20:14 41.69826 -74.79203 1622 ft 160 kts 142°
2026-05-05 20:14 41.69223 -74.78063 2119 ft 144 kts 102°
2026-05-05 20:14 41.69044 -74.76874 2758 ft 105 kts 118°
2026-05-05 20:14 41.68898 -74.75803 2900 ft 128 kts 114°
2026-05-05 20:15 41.68728 -74.74564 3107 ft 139 kts 122°
2026-05-05 20:15 41.68395 -74.73268 3331 ft 144 kts 124°
2026-05-05 20:15 41.68032 -74.72064 3699 ft 134 kts 127°
2026-05-05 20:15 41.67631 -74.70899 3812 ft 138 kts 129°
2026-05-05 20:16 41.67262 -74.69785 4114 ft 128 kts 127°
2026-05-05 20:16 41.66932 -74.68705 4406 ft 120 kts 128°
2026-05-05 20:16 41.66626 -74.67683 4583 ft 119 kts 124°
2026-05-05 20:16 41.66518 -74.66513 4843 ft 127 kts 110°
2026-05-05 20:17 41.66406 -74.65323 5045 ft 133 kts 111°
2026-05-05 20:17 41.66251 -74.63988 5021 ft 155 kts 111°
2026-05-05 20:17 41.66046 -74.62474 5019 ft 173 kts 110°
2026-05-05 20:17 41.65809 -74.60845 5020 ft 184 kts 110°
2026-05-05 20:18 41.65566 -74.59130 5020 ft 191 kts 105°
2026-05-05 20:18 41.65399 -74.57342 5021 ft 195 kts 107°
2026-05-05 20:18 41.65089 -74.55578 5025 ft 196 kts 113°
2026-05-05 20:18 41.64737 -74.53802 5021 ft 198 kts 113°
2026-05-05 20:19 41.64342 -74.52038 5025 ft 197 kts 117°
2026-05-05 20:19 41.63899 -74.50317 5016 ft 199 kts 118°
2026-05-05 20:19 41.63450 -74.48571 4976 ft 196 kts 118°
2026-05-05 20:19 41.63021 -74.46872 5015 ft 192 kts 120°
2026-05-05 20:20 41.62539 -74.45225 5021 ft 189 kts 122°
2026-05-05 20:20 41.62042 -74.43573 5027 ft 193 kts 122°
2026-05-05 20:20 41.61531 -74.41898 5019 ft 194 kts 122°
2026-05-05 20:20 41.61035 -74.40271 5023 ft 194 kts 122°
2026-05-05 20:21 41.60522 -74.38595 5027 ft 195 kts 122°
2026-05-05 20:21 41.60006 -74.36915 5028 ft 196 kts 122°
2026-05-05 20:21 41.59486 -74.35221 5008 ft 197 kts 122°
2026-05-05 20:21 41.58972 -74.33522 5009 ft 197 kts 122°
2026-05-05 20:22 41.58459 -74.31826 5010 ft 197 kts 122°
2026-05-05 20:22 41.57945 -74.30127 5008 ft 198 kts 121°
2026-05-05 20:22 41.57787 -74.28252 5000 ft 209 kts 94°
2026-05-05 20:22 41.57873 -74.26319 5001 ft 208 kts 92°
2026-05-05 20:23 41.57969 -74.24385 5005 ft 209 kts 92°
2026-05-05 20:23 41.58075 -74.22443 5007 ft 210 kts 92°
2026-05-05 20:23 41.58174 -74.20483 5000 ft 212 kts 93°
2026-05-05 20:23 41.58425 -74.18560 4997 ft 214 kts 79°
2026-05-05 20:24 41.58857 -74.16656 5016 ft 214 kts 77°
2026-05-05 20:24 41.59298 -74.14765 5016 ft 210 kts 77°
2026-05-05 20:24 41.59716 -74.12919 5019 ft 206 kts 78°
2026-05-05 20:24 41.60122 -74.11096 5016 ft 203 kts 78°
2026-05-05 20:25 41.60525 -74.09290 5015 ft 203 kts 78°
2026-05-05 20:25 41.60926 -74.07495 5021 ft 200 kts 79°
2026-05-05 20:25 41.61323 -74.05723 4992 ft 199 kts 79°
2026-05-05 20:25 41.61718 -74.03955 4981 ft 198 kts 79°
2026-05-05 20:26 41.62111 -74.02191 4833 ft 195 kts 78°
2026-05-05 20:26 41.62492 -74.00492 4689 ft 188 kts 79°
2026-05-05 20:26 41.62861 -73.98835 4527 ft 185 kts 79°
2026-05-05 20:26 41.63226 -73.97191 4372 ft 183 kts 81°
2026-05-05 20:27 41.63588 -73.95569 4207 ft 179 kts 81°
2026-05-05 20:27 41.63936 -73.94000 4069 ft 178 kts 81°
2026-05-05 20:27 41.64288 -73.92404 3917 ft 179 kts 80°
2026-05-05 20:27 41.64644 -73.90804 3767 ft 180 kts 80°
2026-05-05 20:28 41.65000 -73.89205 3625 ft 179 kts 80°
2026-05-05 20:28 41.65356 -73.87601 3472 ft 179 kts 79°
2026-05-05 20:28 41.65709 -73.86001 3329 ft 181 kts 79°
2026-05-05 20:28 41.66068 -73.84381 3182 ft 181 kts 80°
2026-05-05 20:29 41.66425 -73.82771 3039 ft 180 kts 80°
2026-05-05 20:29 41.66913 -73.81253 2965 ft 175 kts 53°
2026-05-05 20:29 41.67847 -73.80324 2956 ft 162 kts 20°
2026-05-05 20:29 41.68849 -73.79700 2958 ft 155 kts 20°
2026-05-05 20:30 41.69819 -73.79097 2956 ft 152 kts 20°
2026-05-05 20:30 41.70761 -73.78510 2957 ft 146 kts 20°
2026-05-05 20:30 41.71675 -73.78042 2954 ft 136 kts 359°
2026-05-05 20:30 41.72568 -73.78097 2955 ft 122 kts 330°
2026-05-05 20:31 41.73260 -73.78516 2956 ft 92 kts 301°
2026-05-05 20:31 41.73696 -73.79032 2956 ft 76 kts 285°
2026-05-05 20:31 41.73963 -73.79571 2955 ft 66 kts 272°
2026-05-05 20:31 41.74122 -73.80128 2957 ft 68 kts 262°
2026-05-05 20:32 41.74191 -73.80846 2959 ft 83 kts 255°
2026-05-05 20:32 41.74122 -73.81644 2970 ft 91 kts 245°
2026-05-05 20:32 41.73851 -73.82477 2974 ft 105 kts 234°
2026-05-05 20:32 41.73330 -73.83232 2973 ft 116 kts 218°
2026-05-05 20:33 41.72582 -73.83723 2974 ft 125 kts 201°
2026-05-05 20:33 41.71684 -73.83785 2977 ft 136 kts 180°
2026-05-05 20:33 41.70750 -73.83380 2975 ft 144 kts 170°
2026-05-05 20:33 41.69827 -73.82920 2976 ft 135 kts 171°
2026-05-05 20:34 41.69002 -73.82509 2976 ft 116 kts 173°
2026-05-05 20:34 41.68294 -73.82157 2973 ft 102 kts 174°
2026-05-05 20:34 41.67664 -73.81823 2966 ft 92 kts 175°
2026-05-05 20:34 41.67136 -73.81825 2958 ft 70 kts 202°
2026-05-05 20:35 41.66716 -73.81998 2957 ft 60 kts 209°
2026-05-05 20:35 41.66343 -73.82262 2962 ft 63 kts 216°
2026-05-05 20:35 41.65963 -73.82591 2959 ft 67 kts 216°
2026-05-05 20:35 41.65556 -73.82947 2957 ft 73 kts 216°
2026-05-05 20:36 41.65122 -73.83327 2958 ft 76 kts 216°
2026-05-05 20:36 41.64678 -73.83719 2961 ft 77 kts 216°
2026-05-05 20:36 41.64224 -73.84117 2964 ft 79 kts 217°
2026-05-05 20:36 41.63949 -73.84716 2974 ft 83 kts 252°
2026-05-05 20:37 41.63855 -73.85480 2975 ft 83 kts 250°
2026-05-05 20:37 41.63791 -73.85982 2972 ft 83 kts 250°
2026-05-05 20:37 41.63671 -73.86971 2973 ft 80 kts 250°
2026-05-05 20:37 41.63460 -73.87625 2969 ft 78 kts 234°
2026-05-05 20:38 41.63156 -73.88210 2967 ft 75 kts 228°
2026-05-05 20:38 41.62821 -73.88754 2970 ft 78 kts 229°
2026-05-05 20:38 41.62475 -73.89327 2970 ft 80 kts 228°
2026-05-05 20:38 41.62122 -73.89899 2972 ft 80 kts 228°
2026-05-05 20:39 41.61771 -73.90471 2970 ft 79 kts 228°
2026-05-05 20:39 41.61435 -73.91032 2969 ft 76 kts 228°
2026-05-05 20:39 41.61061 -73.91532 2969 ft 76 kts 222°
2026-05-05 20:39 41.60679 -73.92000 2969 ft 74 kts 222°
2026-05-05 20:40 41.60310 -73.92468 2973 ft 74 kts 222°
2026-05-05 20:40 41.59998 -73.93031 2971 ft 76 kts 231°
2026-05-05 20:40 41.59697 -73.93632 2970 ft 79 kts 232°
2026-05-05 20:40 41.59387 -73.94243 2967 ft 80 kts 232°
2026-05-05 20:41 41.59080 -73.94849 2967 ft 79 kts 231°
2026-05-05 20:41 41.58798 -73.95477 2966 ft 77 kts 226°
2026-05-05 20:41 41.58270 -73.95580 2975 ft 82 kts 187°
2026-05-05 20:41 41.57696 -73.95514 2975 ft 83 kts 188°
2026-05-05 20:42 41.57118 -73.95435 2976 ft 86 kts 187°
2026-05-05 20:42 41.56487 -73.95385 2977 ft 96 kts 187°
2026-05-05 20:42 41.55792 -73.95369 2977 ft 103 kts 188°
2026-05-05 20:42 41.55053 -73.95342 2973 ft 110 kts 188°
2026-05-05 20:43 41.54280 -73.95315 2975 ft 112 kts 187°
2026-05-05 20:43 41.53492 -73.95315 2978 ft 114 kts 188°
2026-05-05 20:43 41.52715 -73.95414 2974 ft 111 kts 211°
2026-05-05 20:43 41.52422 -73.96296 2972 ft 115 kts 268°
2026-05-05 20:44 41.52420 -73.97252 2973 ft 93 kts 252°
2026-05-05 20:44 41.52342 -73.98041 2967 ft 81 kts 250°
2026-05-05 20:44 41.52247 -73.98798 2809 ft 86 kts 250°
2026-05-05 20:44 41.52144 -73.99563 2629 ft 83 kts 250°
2026-05-05 20:45 41.51918 -74.01158 2288 ft 87 kts 249°
2026-05-05 20:45 41.51839 -74.01675 2176 ft 86 kts 249°
2026-05-05 20:45 41.51674 -74.02741 1977 ft 87 kts 251°
2026-05-05 20:46 41.51597 -74.03253 1976 ft 83 kts 250°
2026-05-05 20:46 41.51484 -74.03989 1952 ft 81 kts 250°
2026-05-05 20:46 41.51381 -74.04691 1794 ft 71 kts 253°
2026-05-05 20:46 41.51330 -74.05324 1503 ft 72 kts 254°
2026-05-05 20:47 41.51219 -74.05957 1175 ft 69 kts 251°
2026-05-05 20:47 41.51139 -74.06673 961 ft 83 kts 249°
2026-05-05 20:47 41.51030 -74.07385 844 ft 83 kts 245°
2026-05-05 20:47 41.50863 -74.08192 719 ft 84 kts 244°
2026-05-05 20:48 41.50745 -74.08931 554 ft 75 kts 250°
2026-05-05 20:48 41.50621 -74.09624 484 ft 76 kts 251°
2026-05-05 20:48 41.50528 -74.10198 472 ft 43 kts 250°
2026-05-05 20:48 41.50503 -74.10351 473 ft 8 kts 246°
2026-05-05 20:49 41.50497 -74.10391 473 ft 2 kts 268°
2026-05-05 20:49 41.50491 -74.10426 474 ft 6 kts 250°
2026-05-05 20:49 41.50456 -74.10477 473 ft 9 kts 196°
2026-05-05 20:49 41.50396 -74.10436 471 ft 11 kts 109°
2026-05-05 20:50 41.50368 -74.10338 473 ft 14 kts 110°
2026-05-05 20:50 41.50350 -74.10172 475 ft 24 kts 88°
2026-05-05 20:50 41.50387 -74.09943 471 ft 25 kts 77°
2026-05-05 20:50 41.50383 -74.09790 471 ft 14 kts 163°
2026-05-05 20:51 41.50308 -74.09799 470 ft 8 kts 184°
2026-05-05 20:51 41.50223 -74.09822 468 ft 16 kts 188°
2026-05-05 20:51 41.50134 -74.09854 466 ft 10 kts 201°
2026-05-05 20:51 41.50103 -74.09895 467 ft 4 kts 259°
2026-05-05 20:52 41.50101 -74.09917 467 ft 2 kts 265°
2026-05-05 20:52 41.50087 -74.09972 468 ft 5 kts 225°
2026-05-05 20:52 41.50072 -74.10000 467 ft 6 kts 198°
2026-05-05 20:52 41.50061 -74.09996 467 ft 0 kts 82°